Content
SEND FEEDBACK

Daily
Averages
Monthly
Summary
United States of America

WATER VALLEY, MISSISSIPPI


Home > North America > United States > Mississippi
Elevation: 353 feet     Latitude: 34 10N     Longitude: 089 38W

WEATHER
 
SELECT A DAY
Number of Records: 154,021;   Date Range: 1/16/01 - 7/29/14
 
SHARE

PRINT THIS DATA

[ ← Previous Day ]
WEATHER ALMANAC - JANUARY 31, 2013
[ Next Day → ]
[ °C ]   °F
Weather ElementAverageHighLow
Temperature40.9 °F53.6 °F (3:15 pm)28.4 °F (5:15 am)
Dewpoint26.1 °F32 °F (9:35 pm)21.2 °F (12:15 pm)
Humidity58.1 %86 % (5:15 am)33 % (1:55 pm)
Barometer30.16 in30.31 in (11:55 pm)30.07 in (12:35 am)
Wind Speed7.8 mph15 mph (1:35 pm)
Wind Gust24.2 mph (2:55 pm)
Weather ElementAverage
Visibility9.2 mi
Wind DirectionWSW (252.6 °)

Weather ElementTotal
Precipitation---
Heating Degree Days24 (Base 65)
Averaged from 68 records on January 31, 2013
WEATHER CONDITIONS BREAKOUT
WIND DIRECTION BREAKOUT
WEATHER BY HOUR - JANUARY 31, 2013
[ °C ]   °F
Local TimeTemperatureDewpointHumidityBarometerVisibilityWind DirectionWind SpeedGust SpeedPrecipitationEventsConditions
12:35 AM35.6 °F24.8 °F65 %30.07 in10.0 miWNW (300°)10.4 mph18.4 mphClear
12:55 AM35.6 °F24.8 °F65 %30.07 in10.0 miNW (310°)9.2 mphClear
1:15 AM35.6 °F24.8 °F65 %30.08 in10.0 miNW (310°)6.9 mph16.1 mphClear
1:35 AM33.8 °F24.8 °F70 %30.07 in10.0 miNW (310°)11.5 mph18.4 mphClear
1:55 AM33.8 °F23.0 °F65 %30.08 in10.0 miNW (320°)13.8 mph17.3 mphClear
2:15 AM32.0 °F23.0 °F69 %30.08 in10.0 miWNW (290°)5.8 mphClear
2:35 AM32.0 °F23.0 °F69 %30.09 in9.0 miWNW (290°)4.6 mphClear
2:55 AM32.0 °F23.0 °F69 %30.09 in10.0 miWest (280°)4.6 mphClear
3:15 AM32.0 °F23.0 °F69 %30.10 in10.0 miWest (270°)4.6 mphClear
3:35 AM32.0 °F24.8 °F75 %30.09 in10.0 miWest (270°)4.6 mphClear
3:55 AM32.0 °F24.8 °F75 %30.10 in10.0 miWSW (240°)4.6 mph
4:15 AM30.2 °F24.8 °F80 %30.10 in9.0 miWSW (240°)4.6 mphClear
4:35 AM30.2 °F24.8 °F80 %30.11 in9.0 miWSW (240°)4.6 mphClear
4:55 AM30.2 °F24.8 °F80 %30.12 in9.0 miWSW (240°)4.6 mphClear
5:15 AM28.4 °F24.8 °F86 %30.12 in9.0 miWSW (240°)4.6 mphClear
5:35 AM30.2 °F24.8 °F80 %30.13 in9.0 miWest (260°)4.6 mphClear
5:55 AM30.2 °F24.8 °F80 %30.14 in9.0 miWSW (250°)4.6 mphClear
6:15 AM30.2 °F24.8 °F80 %30.15 in9.0 miWSW (250°)4.6 mphClear
6:55 AM30.2 °F24.8 °F80 %30.16 in7.0 miCalmClear
7:15 AM30.2 °F24.8 °F80 %30.17 in7.0 miCalmClear
7:35 AM30.2 °F24.8 °F80 %30.18 in7.0 miCalmClear
7:55 AM32.0 °F26.6 °F80 %30.19 in7.0 miWest (270°)3.5 mphClear
8:15 AM33.8 °F26.6 °F75 %30.20 in7.0 miWSW (250°)5.8 mphClear
8:35 AM35.6 °F26.6 °F70 %30.20 in8.0 miWest (270°)5.8 mphClear
8:55 AM37.4 °F26.6 °F65 %30.21 in8.0 miWest (270°)5.8 mphClear
9:15 AM37.4 °F26.6 °F65 %30.21 in8.0 miWNW (290°)9.2 mphClear
9:35 AM39.2 °F24.8 °F56 %30.21 in9.0 miWNW (300°)10.4 mphClear
9:55 AM39.2 °F24.8 °F56 %30.22 in8.0 miNW (310°)10.4 mphClear
10:15 AM41.0 °F23.0 °F49 %30.23 in8.0 miWNW (290°)6.9 mphClear
10:35 AM41.0 °F24.8 °F53 %30.23 in8.0 miWSW (250°)9.2 mphClear
10:55 AM41.0 °F24.8 °F53 %30.21 in8.0 miWest (260°)6.9 mphClear
11:15 AM44.6 °F24.8 °F46 %30.21 in9.0 miWest (270°)8.1 mphClear
11:35 AM44.6 °F24.8 °F46 %30.21 in8.0 miSW (230°)6.9 mphClear
11:55 AM46.4 °F23.0 °F40 %30.19 in9.0 miWest (270°)10.4 mphClear
12:15 PM48.2 °F21.2 °F34 %30.18 in9.0 miWest (270°)8.1 mphClear
12:35 PM48.2 °F23.0 °F37 %30.17 in9.0 miWest (270°)8.1 mph17.3 mphClear
12:55 PM50.0 °F23.0 °F35 %30.17 in9.0 miWest (260°)11.5 mph16.1 mphClear
1:15 PM50.0 °F23.0 °F35 %30.15 in9.0 miWest (270°)11.5 mph17.3 mphClear
1:35 PM50.0 °F23.0 °F35 %30.14 in9.0 miWSW (240°)15.0 mphClear
1:55 PM51.8 °F23.0 °F33 %30.14 in8.0 miWSW (240°)13.8 mph17.3 mphClear
2:15 PM51.8 °F24.8 °F35 %30.13 in10.0 miWSW (250°)10.4 mph21.9 mphClear
2:35 PM51.8 °F24.8 °F35 %30.13 in10.0 miSW (230°)15.0 mph21.9 mphClear
2:55 PM51.8 °F24.8 °F35 %30.12 in10.0 miSW (230°)11.5 mph24.2 mphClear
3:15 PM53.6 °F24.8 °F33 %30.12 in10.0 miSW (230°)10.4 mph18.4 mphClear
3:35 PM51.8 °F24.8 °F35 %30.12 in9.0 miSSW (210°)12.7 mph21.9 mphClear
3:55 PM51.8 °F26.6 °F38 %30.11 in9.0 miSW (220°)13.8 mph21.9 mphClear
4:15 PM51.8 °F26.6 °F38 %30.11 in10.0 miSW (230°)10.4 mphClear
4:55 PM50.0 °F28.4 °F43 %30.14 in9.0 miWSW (240°)6.9 mphClear
5:15 PM48.2 °F28.4 °F46 %30.15 in10.0 miWSW (240°)6.9 mphClear
5:35 PM48.2 °F28.4 °F46 %30.14 in9.0 miSW (230°)6.9 mphClear
5:55 PM46.4 °F30.2 °F53 %30.14 in10.0 miSW (220°)8.1 mphClear
6:15 PM46.4 °F30.2 °F53 %30.14 in10.0 miSW (220°)8.1 mphClear
6:35 PM46.4 °F30.2 °F53 %30.14 in10.0 miSSW (210°)5.8 mphClear
6:55 PM46.4 °F30.2 °F53 %30.14 in10.0 miSSW (210°)5.8 mphClear
7:15 PM44.6 °F30.2 °F57 %30.15 in10.0 miSW (220°)5.8 mphClear
7:35 PM44.6 °F30.2 °F57 %30.16 in10.0 miSW (220°)5.8 mphClear
7:55 PM44.6 °F30.2 °F57 %30.17 in10.0 miSW (220°)4.6 mphClear
8:15 PM44.6 °F30.2 °F57 %30.17 in10.0 miSW (220°)6.9 mphClear
8:35 PM44.6 °F30.2 °F57 %30.17 in10.0 miSW (220°)6.9 mphClear
9:15 PM44.6 °F30.2 °F57 %30.18 in10.0 miSW (230°)6.9 mphClear
9:35 PM44.6 °F32.0 °F61 %30.22 in10.0 miNW (310°)6.9 mphClear
9:55 PM44.6 °F32.0 °F61 %30.23 in10.0 miNNW (330°)6.9 mphClear
10:15 PM44.6 °F30.2 °F57 %30.25 in10.0 miNNW (330°)8.1 mphClear
10:35 PM42.8 °F28.4 °F57 %30.26 in10.0 miNNW (330°)9.2 mphClear
10:55 PM42.8 °F28.4 °F57 %30.28 in10.0 miNorth (350°)15.0 mph20.7 mphClear
11:15 PM41.0 °F30.2 °F65 %30.30 in10.0 miNorth (350°)12.7 mph16.1 mphClear
11:35 PM39.2 °F30.2 °F70 %30.30 in10.0 miNorth (360°)10.4 mphClear
11:55 PM37.4 °F24.8 °F60 %30.31 in10.0 miNNW (330°)12.7 mph17.3 mphClear
Hourly data recorded from KUOX, located miles away from Water Valley, Mississippi







STORIES FROM OUR PARTNERS